DLH4PM EDDK-EDDH

Flight info

Callsign DLH4PM
Flight time N/A
Altitude 33000
Route PODIP2Q PODIP Y867 PELUN DCT ANZIV DCT WRB Y867 TOLGI DCT SAS/N0455F320 P605 NOLGO NOLGO3P
Aircraft A320/M-SDE3FGHIRWY/LB1

Departure

Time 2026-04-22 09:03
Airport Cologne Bonn Airport (EDDK)

Arrival

Time N/A
Airport Hamburg Helmut Schmidt Airport (EDDH)
Time Latitude Longitude Altitude Speed Heading
2026-04-22 08:15 50.87873 7.12457 230 ft 0 kts 288°
2026-04-22 08:54 50.87869 7.12477 230 ft 0 kts 288°
2026-04-22 08:55 50.87863 7.12507 233 ft 4 kts 288°
2026-04-22 08:55 50.87854 7.12546 230 ft 4 kts 302°
2026-04-22 08:56 50.87837 7.12574 232 ft 4 kts 341°
2026-04-22 08:56 50.87821 7.12577 232 ft 0 kts 18°
2026-04-22 08:59 50.87828 7.12581 231 ft 4 kts 18°
2026-04-22 08:59 50.87853 7.12594 230 ft 3 kts 18°
2026-04-22 08:59 50.87869 7.12602 232 ft 2 kts 18°
2026-04-22 08:59 50.87898 7.12617 230 ft 9 kts 19°
2026-04-22 09:00 50.87951 7.12661 233 ft 8 kts 38°
2026-04-22 09:00 50.87965 7.12681 232 ft 0 kts 45°
2026-04-22 09:00 50.87967 7.12685 231 ft 3 kts 45°
2026-04-22 09:01 50.87995 7.12747 234 ft 11 kts 64°
2026-04-22 09:01 50.88009 7.12874 237 ft 12 kts 90°
2026-04-22 09:01 50.87982 7.12990 239 ft 11 kts 126°
2026-04-22 09:01 50.87930 7.13076 241 ft 10 kts 137°
2026-04-22 09:02 50.87858 7.13180 243 ft 31 kts 138°
2026-04-22 09:02 50.87512 7.13684 246 ft 101 kts 137°
2026-04-22 09:02 50.86859 7.14634 258 ft 152 kts 137°
2026-04-22 09:02 50.86018 7.15851 630 ft 170 kts 134°
2026-04-22 09:03 50.85109 7.17123 1399 ft 178 kts 137°
2026-04-22 09:03 50.84273 7.18550 2198 ft 178 kts 123°
2026-04-22 09:03 50.83683 7.20287 2932 ft 182 kts 109°
2026-04-22 09:03 50.83283 7.22214 3636 ft 187 kts 108°
2026-04-22 09:04 50.82842 7.24151 4259 ft 188 kts 109°
2026-04-22 09:04 50.82363 7.26084 4908 ft 190 kts 110°
2026-04-22 09:04 50.81848 7.28018 5521 ft 193 kts 108°
2026-04-22 09:04 50.81803 7.30203 5814 ft 215 kts 73°
2026-04-22 09:05 50.82387 7.32527 6176 ft 240 kts 69°
2026-04-22 09:05 50.83023 7.35051 6842 ft 251 kts 69°
2026-04-22 09:05 50.83662 7.37653 7691 ft 256 kts 70°
2026-04-22 09:05 50.84304 7.40292 8586 ft 259 kts 70°
2026-04-22 09:06 50.84951 7.42966 9476 ft 262 kts 70°
2026-04-22 09:06 50.85605 7.45677 10330 ft 265 kts 70°
2026-04-22 09:06 50.86045 7.47505 10706 ft 275 kts 70°
2026-04-22 09:06 50.86751 7.50454 10971 ft 298 kts 70°
2026-04-22 09:07 50.87515 7.53641 11184 ft 321 kts 70°
2026-04-22 09:07 50.88339 7.57066 11325 ft 344 kts 70°
2026-04-22 09:07 50.89215 7.60722 11460 ft 365 kts 70°
2026-04-22 09:07 50.90129 7.64544 11858 ft 375 kts 69°
2026-04-22 09:08 50.91060 7.68427 12432 ft 379 kts 69°
2026-04-22 09:08 50.91998 7.72352 13032 ft 383 kts 69°
2026-04-22 09:08 50.92941 7.76314 13639 ft 386 kts 69°
2026-04-22 09:08 50.93893 7.80311 14219 ft 389 kts 68°
2026-04-22 09:09 50.94988 7.84248 14731 ft 392 kts 66°
2026-04-22 09:09 50.96076 7.88227 15261 ft 394 kts 66°
2026-04-22 09:09 50.97243 7.92175 15771 ft 397 kts 59°
2026-04-22 09:09 50.98825 7.95779 16277 ft 400 kts 54°
2026-04-22 09:10 51.00461 7.99361 16803 ft 402 kts 54°
2026-04-22 09:10 51.02111 8.02957 17298 ft 404 kts 54°
2026-04-22 09:10 51.03770 8.06572 17804 ft 406 kts 54°
2026-04-22 09:10 51.05440 8.10219 18284 ft 409 kts 54°
2026-04-22 09:11 51.07114 8.13890 18761 ft 411 kts 54°
2026-04-22 09:11 51.08793 8.17577 19180 ft 413 kts 54°
2026-04-22 09:11 51.10479 8.21282 19584 ft 414 kts 54°
2026-04-22 09:11 51.12173 8.25004 19989 ft 416 kts 54°
2026-04-22 09:12 51.13851 8.28697 20281 ft 417 kts 54°
2026-04-22 09:12 51.15571 8.32494 20356 ft 417 kts 54°
2026-04-22 09:12 51.17241 8.36191 20361 ft 416 kts 54°
2026-04-22 09:12 51.18931 8.39939 20370 ft 416 kts 54°
2026-04-22 09:13 51.20616 8.43686 20370 ft 416 kts 54°
2026-04-22 09:13 51.22304 8.47438 20316 ft 417 kts 54°
2026-04-22 09:13 51.23986 8.51181 19941 ft 415 kts 54°
2026-04-22 09:13 51.25663 8.54922 19569 ft 413 kts 55°
2026-04-22 09:14 51.27328 8.58645 19197 ft 410 kts 55°
2026-04-22 09:14 51.28982 8.62337 18847 ft 408 kts 54°
2026-04-22 09:14 51.30630 8.66019 18465 ft 404 kts 54°
2026-04-22 09:14 51.32237 8.69618 18057 ft 392 kts 54°
2026-04-22 09:15 51.33798 8.73123 17655 ft 382 kts 55°
2026-04-22 09:15 51.35315 8.76537 17248 ft 372 kts 55°
2026-04-22 09:15 51.36796 8.79868 16860 ft 363 kts 55°
2026-04-22 09:15 51.38247 8.83133 16464 ft 356 kts 55°
2026-04-22 09:16 51.39665 8.86331 16078 ft 349 kts 55°
2026-04-22 09:16 51.41058 8.89483 15697 ft 345 kts 55°
2026-04-22 09:16 51.42440 8.92618 15319 ft 343 kts 55°
2026-04-22 09:16 51.43808 8.95725 14945 ft 339 kts 55°
2026-04-22 09:17 51.45153 8.98784 14573 ft 333 kts 55°
2026-04-22 09:17 51.46480 9.01795 14204 ft 328 kts 55°
2026-04-22 09:17 51.47790 9.04766 13801 ft 324 kts 55°
2026-04-22 09:17 51.49123 9.07644 13393 ft 319 kts 51°
2026-04-22 09:18 51.50615 9.10252 12996 ft 316 kts 45°
2026-04-22 09:18 51.52251 9.12577 12603 ft 313 kts 40°
2026-04-22 09:18 51.54013 9.14596 12208 ft 310 kts 34°
2026-04-22 09:18 51.55825 9.16435 11830 ft 307 kts 34°
2026-04-22 09:19 51.57612 9.18253 11536 ft 301 kts 34°
2026-04-22 09:19 51.59359 9.20034 11280 ft 294 kts 34°
2026-04-22 09:19 51.61068 9.21775 11032 ft 288 kts 34°
2026-04-22 09:19 51.62741 9.23485 10784 ft 282 kts 34°
2026-04-22 09:20 51.64382 9.25167 10540 ft 277 kts 35°
2026-04-22 09:20 51.65990 9.26818 10295 ft 272 kts 35°
2026-04-22 09:20 51.67575 9.28445 10028 ft 268 kts 35°
2026-04-22 09:20 51.69141 9.30056 9749 ft 266 kts 34°
2026-04-22 09:21 51.70698 9.31659 9479 ft 265 kts 34°
2026-04-22 09:21 51.72248 9.33256 9223 ft 264 kts 34°
2026-04-22 09:21 51.73792 9.34846 8951 ft 263 kts 34°
2026-04-22 09:21 51.75335 9.36434 8686 ft 263 kts 34°
2026-04-22 09:22 51.76872 9.38022 8416 ft 262 kts 35°
2026-04-22 09:22 51.78402 9.39603 8172 ft 261 kts 35°
2026-04-22 09:22 51.79930 9.41179 7922 ft 260 kts 34°
2026-04-22 09:22 51.81455 9.42755 7668 ft 260 kts 34°
2026-04-22 09:23 51.82970 9.44327 7416 ft 259 kts 35°
2026-04-22 09:23 51.84485 9.45899 7201 ft 258 kts 35°
2026-04-22 09:23 51.85996 9.47466 7027 ft 258 kts 35°
2026-04-22 09:23 51.87506 9.49032 6848 ft 257 kts 35°
2026-04-22 09:24 51.88994 9.50579 6727 ft 258 kts 35°
2026-04-22 09:24 51.90519 9.52164 6582 ft 257 kts 34°
2026-04-22 09:24 51.92002 9.53702 6498 ft 256 kts 34°
2026-04-22 09:24 51.93502 9.55263 6414 ft 256 kts 34°
2026-04-22 09:25 51.95001 9.56829 6340 ft 256 kts 34°
2026-04-22 09:25 51.96499 9.58390 6258 ft 256 kts 34°
2026-04-22 09:25 51.97995 9.59950 6182 ft 255 kts 34°
2026-04-22 09:25 51.99488 9.61508 6103 ft 255 kts 34°
2026-04-22 09:26 52.00981 9.63067 6020 ft 255 kts 34°
2026-04-22 09:26 52.02476 9.64629 5934 ft 255 kts 34°
2026-04-22 09:26 52.03964 9.66186 5856 ft 255 kts 34°
2026-04-22 09:26 52.05453 9.67749 5786 ft 255 kts 34°
2026-04-22 09:27 52.06940 9.69311 5705 ft 255 kts 34°
2026-04-22 09:27 52.08424 9.70873 5625 ft 254 kts 34°
2026-04-22 09:27 52.09909 9.72433 5545 ft 254 kts 34°
2026-04-22 09:27 52.11395 9.73994 5468 ft 254 kts 34°
2026-04-22 09:28 52.12876 9.75553 5388 ft 254 kts 34°
2026-04-22 09:28 52.14356 9.77115 5312 ft 253 kts 34°
2026-04-22 09:28 52.15834 9.78672 5234 ft 253 kts 34°
2026-04-22 09:28 52.17312 9.80230 5139 ft 253 kts 34°
2026-04-22 09:29 52.18786 9.81788 5021 ft 252 kts 34°
2026-04-22 09:29 52.20259 9.83342 4999 ft 252 kts 34°
2026-04-22 09:29 52.21734 9.84897 5003 ft 252 kts 34°
2026-04-22 09:29 52.23200 9.86441 4717 ft 250 kts 34°
2026-04-22 09:30 52.24683 9.87910 4256 ft 250 kts 27°
2026-04-22 09:30 52.26334 9.88810 3854 ft 252 kts 12°
2026-04-22 09:30 52.28054 9.89315 3458 ft 251 kts 12°
2026-04-22 09:30 52.29773 9.89830 3078 ft 250 kts 12°
2026-04-22 09:31 52.31479 9.90351 2699 ft 249 kts 13°
2026-04-22 09:31 52.33130 9.90856 2520 ft 229 kts 12°
2026-04-22 09:31 52.34607 9.91304 2487 ft 202 kts 12°
2026-04-22 09:31 52.35934 9.91706 2528 ft 189 kts 12°
2026-04-22 09:32 52.37164 9.92078 2511 ft 170 kts 12°
2026-04-22 09:32 52.38296 9.92421 2507 ft 163 kts 12°
2026-04-22 09:32 52.39393 9.92757 2503 ft 158 kts 12°
2026-04-22 09:32 52.40477 9.93092 2514 ft 158 kts 12°
2026-04-22 09:33 52.41561 9.93425 2510 ft 159 kts 12°
2026-04-22 09:33 52.42664 9.93480 2508 ft 161 kts 353°
2026-04-22 09:33 52.43707 9.92799 2511 ft 164 kts 329°
2026-04-22 09:33 52.44501 9.91454 2459 ft 166 kts 303°
2026-04-22 09:34 52.44865 9.89654 2397 ft 169 kts 276°
2026-04-22 09:34 52.44926 9.87728 2227 ft 169 kts 274°
2026-04-22 09:34 52.44980 9.85818 2000 ft 166 kts 274°
2026-04-22 09:35 52.45088 9.82088 1551 ft 154 kts 274°
2026-04-22 09:35 52.45137 9.80373 1351 ft 147 kts 274°
2026-04-22 09:35 52.45177 9.78718 1143 ft 144 kts 274°
2026-04-22 09:35 52.45225 9.77081 948 ft 144 kts 274°
2026-04-22 09:36 52.45283 9.75448 743 ft 143 kts 273°
2026-04-22 09:36 52.45328 9.73812 537 ft 144 kts 274°
2026-04-22 09:36 52.45376 9.72172 356 ft 144 kts 272°
2026-04-22 09:36 52.45418 9.70526 202 ft 144 kts 272°
2026-04-22 09:37 52.45457 9.69141 189 ft 84 kts 273°
2026-04-22 09:37 52.45475 9.68548 182 ft 41 kts 272°
2026-04-22 09:37 52.45501 9.68272 181 ft 15 kts 319°
2026-04-22 09:37 52.45583 9.68257 179 ft 9 kts
2026-04-22 09:38 52.45644 9.68262 179 ft 8 kts
2026-04-22 09:38 52.45697 9.68277 178 ft 7 kts 20°
2026-04-22 09:38 52.45739 9.68309 178 ft 6 kts 26°
2026-04-22 09:38 52.45771 9.68342 178 ft 5 kts 42°
2026-04-22 09:39 52.45787 9.68385 178 ft 4 kts 69°
2026-04-22 09:39 52.45791 9.68424 178 ft 3 kts 87°
2026-04-22 09:39 52.45789 9.68482 178 ft 9 kts 94°
2026-04-22 09:39 52.45786 9.68584 178 ft 12 kts 92°
2026-04-22 09:40 52.45782 9.68738 178 ft 15 kts 92°
2026-04-22 09:40 52.45778 9.68918 178 ft 17 kts 85°
2026-04-22 09:40 52.45838 9.69083 178 ft 17 kts 60°
2026-04-22 09:40 52.45800 9.69217 178 ft 15 kts 142°
2026-04-22 09:41 52.45758 9.69372 178 ft 17 kts 91°
2026-04-22 09:41 52.45732 9.69484 178 ft 7 kts 95°
2026-04-22 09:41 52.45752 9.69542 178 ft 5 kts 55°
2026-04-22 09:41 52.45767 9.69576 178 ft 1 kts 52°
2026-04-22 09:42 52.45768 9.69578 178 ft 0 kts 52°